| time (UTC) | temp C | wind direction | speed KPH | gust KPH | rain 1hr cm | rain 24hr cm | rain mn cm | humidity % | barometer mb |
| 20260906155005 | 25 | 85 | 6.4 | 9.7 | 0.00 | 0.00 | 0.00 | 77 | 1020.8 |
| 20260906154500 | 24 | 41 | 3.2 | 3.2 | 0.00 | 0.00 | 0.00 | 78 | 1020.9 |
| 20260906153959 | 24 | 59 | 3.2 | 4.8 | 0.00 | 0.00 | 0.00 | 77 | 1020.7 |
| 20260906153457 | 25 | 144 | 6.4 | 6.4 | 0.00 | 0.00 | 0.00 | 75 | 1020.9 |
| 20260906152953 | 24 | 80 | 3.2 | 3.2 | 0.00 | 0.00 | 0.00 | 78 | 1020.8 |
| 20260906152453 | 23 | 183 | 6.4 | 6.4 | 0.00 | 0.00 | 0.00 | 79 | 1020.8 |
| 20260906151947 | 25 | 307 | 6.4 | 6.4 | 0.00 | 0.00 | 0.00 | 77 | 1020.8 |
| 20260906151442 | 25 | 64 | 3.2 | 4.8 | 0.00 | 0.00 | 0.00 | 77 | 1020.6 |
| 20260906150938 | 24 | 168 | 8.0 | 11.3 | 0.00 | 0.00 | 0.00 | 78 | 1020.5 |
| 20260906150433 | 23 | 84 | 6.4 | 9.7 | 0.00 | 0.00 | 0.00 | 79 | 1020.5 |
| 20260906145932 | 23 | 31 | 6.4 | 9.7 | 0.00 | 0.00 | 0.00 | 80 | 1020.4 |
| 20260906145431 | 23 | 84 | 4.8 | 6.4 | 0.00 | 0.00 | 0.00 | 79 | 1020.7 |
| 20260906144926 | 23 | 119 | 8.0 | 9.7 | 0.00 | 0.00 | 0.00 | 79 | 1020.4 |
| 20260906144421 | 23 | 40 | 8.0 | 11.3 | 0.00 | 0.00 | 0.00 | 80 | 1020.4 |
| 20260906143916 | 23 | 100 | 9.7 | 12.9 | 0.00 | 0.00 | 0.00 | 80 | 1020.3 |
| 20260906143412 | 23 | 87 | 8.0 | 11.3 | 0.00 | 0.00 | 0.00 | 80 | 1020.4 |
| 20260906142908 | 23 | 62 | 6.4 | 9.7 | 0.00 | 0.00 | 0.00 | 79 | 1020.3 |
| 20260906142407 | 23 | 122 | 4.8 | 9.7 | 0.00 | 0.00 | 0.00 | 79 | 1020.2 |
| 20260906141902 | 22 | 84 | 3.2 | 4.8 | 0.00 | 0.00 | 0.00 | 82 | 1020.4 |
| 20260906141356 | 22 | 68 | 6.4 | 11.3 | 0.00 | 0.00 | 0.00 | 81 | 1020.3 |
| 20260906140856 | 22 | 3 | 1.6 | 1.6 | 0.00 | 0.00 | 0.00 | 83 | 1020.2 |
| 20260906140350 | 22 | 77 | 6.4 | 9.7 | 0.00 | 0.00 | 0.00 | 83 | 1020.2 |
| 20260906135848 | 22 | 87 | 6.4 | 6.4 | 0.00 | 0.00 | 0.00 | 82 | 1020.4 |
| 20260906135342 | 22 | 59 | 3.2 | 6.4 | 0.00 | 0.00 | 0.00 | 84 | 1020.4 |
| 20260906134838 | 21 | 70 | 4.8 | 6.4 | 0.00 | 0.00 | 0.00 | 84 | 1020.3 |
| 20260906134333 | 21 | 62 | 1.6 | 3.2 | 0.00 | 0.00 | 0.00 | 85 | 1020.4 |
| 20260906133828 | 22 | 64 | 3.2 | 4.8 | 0.00 | 0.00 | 0.00 | 84 | 1020.2 |
| 20260906133324 | 22 | 44 | 3.2 | 3.2 | 0.00 | 0.00 | 0.00 | 83 | 1020.4 |
| 20260906132819 | 21 | 18 | 3.2 | 4.8 | 0.00 | 0.00 | 0.00 | 85 | 1020.2 |
| 20260906132314 | 21 | 47 | 1.6 | 1.6 | 0.00 | 0.00 | 0.00 | 85 | 1020.6 |
| 20260906131810 | 21 | 2 | 3.2 | 3.2 | 0.00 | 0.00 | 0.00 | 86 | 1020.5 |
| 20260906131305 | 21 | 43 | 6.4 | 6.4 | 0.00 | 0.00 | 0.00 | 88 | 1020.5 |
| 20260906130801 | 21 | 80 | 4.8 | 6.4 | 0.00 | 0.00 | 0.00 | 87 | 1020.5 |
| 20260906130255 | 20 | 40 | 1.6 | 3.2 | 0.00 | 0.00 | 0.00 | 89 | 1020.3 |
| 20260906125754 | 20 | 50 | 3.2 | 3.2 | 0.00 | 0.00 | 0.00 | 90 | 1020.3 |
| 20260906125252 | 20 | 41 | 1.6 | 3.2 | 0.00 | 0.00 | 0.00 | 91 | 1020.4 |
| 20260906124752 | 20 | 44 | 3.2 | 4.8 | 0.00 | 0.00 | 0.00 | 92 | 1020.3 |
| 20260906124248 | 20 | 45 | 4.8 | 6.4 | 0.00 | 0.00 | 0.00 | 91 | 1020.3 |
| 20260906123746 | 20 | 44 | 3.2 | 3.2 | 0.00 | 0.00 | 0.00 | 92 | 1020.2 |
| 20260906123242 | 20 | 31 | 3.2 | 3.2 | 0.00 | 0.00 | 0.00 | 93 | 1020.0 |
| 20260906122741 | 20 | 37 | 4.8 | 4.8 | 0.00 | 0.00 | 0.00 | 93 | 1020.1 |
| 20260906122237 | 20 | 8 | 1.6 | 3.2 | 0.00 | 0.00 | 0.00 | 93 | 1020.2 |
| 20260906121733 | 20 | 12 | 1.6 | 3.2 | 0.00 | 0.00 | 0.00 | 93 | 1020.1 |
| 20260906121230 | 19 | 0 | 3.2 | 3.2 | 0.00 | 0.00 | 0.00 | 94 | 1020.0 |
| 20260906120725 | 19 | 20 | 1.6 | 3.2 | 0.00 | 0.00 | 0.00 | 94 | 1020.0 |
| 20260906120222 | 19 | 22 | 0.0 | 1.6 | 0.00 | 0.00 | 0.00 | 94 | 1019.8 |
| 20260906115717 | 19 | 49 | 4.8 | 4.8 | 0.00 | 0.00 | 0.00 | 94 | 1020.0 |
| 20260906115212 | 19 | 36 | 4.8 | 4.8 | 0.00 | 0.00 | 0.00 | 94 | 1019.8 |
| 20260906114711 | 19 | 33 | 3.2 | 3.2 | 0.00 | 0.00 | 0.00 | 95 | 1019.8 |
| 20260906114206 | 19 | 53 | 4.8 | 4.8 | 0.00 | 0.00 | 0.00 | 94 | 1019.8 |
| 20260906113701 | 19 | 59 | 8.0 | 11.3 | 0.00 | 0.00 | 0.00 | 95 | 1019.7 |
| 20260906113201 | 19 | 15 | 1.6 | 3.2 | 0.00 | 0.00 | 0.00 | 94 | 1019.4 |
| 20260906112700 | 19 | 78 | 6.4 | 6.4 | 0.00 | 0.00 | 0.00 | 94 | 1019.4 |
| 20260906112157 | 19 | 35 | 3.2 | 3.2 | 0.00 | 0.00 | 0.00 | 94 | 1019.5 |
| 20260906111656 | 19 | 59 | 4.8 | 4.8 | 0.00 | 0.00 | 0.00 | 94 | 1019.6 |
| 20260906111151 | 19 | 67 | 4.8 | 6.4 | 0.00 | 0.00 | 0.00 | 94 | 1019.5 |
| 20260906110646 | 19 | 26 | 4.8 | 9.7 | 0.00 | 0.00 | 0.00 | 94 | 1019.6 |
| 20260906110142 | 19 | 10 | 3.2 | 3.2 | 0.00 | 0.00 | 0.00 | 94 | 1019.5 |
| 20260906105635 | 19 | 5 | 3.2 | 3.2 | 0.00 | 0.00 | 0.00 | 94 | 1019.5 |
| 20260906105132 | 19 | 9 | 0.0 | 1.6 | 0.00 | 0.00 | 0.00 | 94 | 1019.2 |
| 20260906104631 | 20 | 37 | 3.2 | 3.2 | 0.00 | 0.00 | 0.00 | 94 | 1019.2 |
| 20260906104131 | 20 | 341 | 0.0 | 1.6 | 0.00 | 0.00 | 0.00 | 94 | 1019.1 |
| 20260906103629 | 20 | 46 | 3.2 | 4.8 | 0.00 | 0.00 | 0.00 | 94 | 1018.9 |
| 20260906103124 | 20 | 37 | 3.2 | 3.2 | 0.00 | 0.00 | 0.00 | 94 | 1018.6 |
| 20260906102620 | 20 | 48 | 4.8 | 6.4 | 0.00 | 0.00 | 0.00 | 93 | 1018.6 |
| 20260906102114 | 20 | 54 | 1.6 | 1.6 | 0.00 | 0.00 | 0.00 | 93 | 1018.5 |
| 20260906101614 | 20 | 79 | 3.2 | 6.4 | 0.00 | 0.00 | 0.00 | 93 | 1018.5 |
| 20260906101114 | 20 | 49 | 4.8 | 4.8 | 0.00 | 0.00 | 0.00 | 92 | 1018.6 |
| 20260906100610 | 20 | 27 | 3.2 | 3.2 | 0.00 | 0.00 | 0.00 | 92 | 1018.4 |
| 20260906100110 | 20 | 35 | 1.6 | 1.6 | 0.00 | 0.00 | 0.00 | 92 | 1018.4 |
| 20260906095610 | 20 | 54 | 3.2 | 3.2 | 0.00 | 0.00 | 0.00 | 92 | 1018.6 |
| 20260906095105 | 20 | 42 | 3.2 | 4.8 | 0.00 | 0.00 | 0.00 | 92 | 1018.4 |
| 20260906094604 | 20 | 22 | 3.2 | 4.8 | 0.00 | 0.00 | 0.00 | 92 | 1018.4 |
| 20260906094101 | 20 | 28 | 3.2 | 3.2 | 0.00 | 0.00 | 0.00 | 91 | 1018.3 |
| 20260906093556 | 20 | 3 | 0.0 | 1.6 | 0.00 | 0.00 | 0.00 | 91 | 1018.3 |
| 20260906093051 | 20 | 16 | 1.6 | 1.6 | 0.00 | 0.00 | 0.00 | 91 | 1018.3 |
| 20260906092546 | 20 | 50 | 3.2 | 3.2 | 0.00 | 0.00 | 0.00 | 91 | 1018.3 |
| 20260906092041 | 20 | 54 | 3.2 | 3.2 | 0.00 | 0.00 | 0.00 | 91 | 1018.2 |
| 20260906091537 | 20 | 46 | 4.8 | 6.4 | 0.00 | 0.00 | 0.00 | 91 | 1018.3 |
| 20260906091033 | 20 | 24 | 4.8 | 4.8 | 0.00 | 0.00 | 0.00 | 90 | 1018.3 |
| 20260906090534 | 21 | 15 | 1.6 | 1.6 | 0.00 | 0.00 | 0.00 | 90 | 1018.5 |
| 20260906090034 | 21 | 3 | 0.0 | 1.6 | 0.00 | 0.00 | 0.00 | 90 | 1018.4 |
| 20260906085532 | 21 | 94 | 3.2 | 4.8 | 0.00 | 0.00 | 0.00 | 90 | 1018.5 |
| 20260906085033 | 20 | 9 | 1.6 | 3.2 | 0.00 | 0.00 | 0.00 | 91 | 1018.3 |
| 20260906084533 | 20 | 57 | 3.2 | 3.2 | 0.00 | 0.00 | 0.00 | 91 | 1018.4 |
| 20260906084031 | 20 | 22 | 3.2 | 3.2 | 0.00 | 0.00 | 0.00 | 91 | 1018.5 |
| 20260906083527 | 20 | 28 | 1.6 | 3.2 | 0.00 | 0.00 | 0.00 | 90 | 1018.5 |
| 20260906083027 | 21 | 53 | 3.2 | 4.8 | 0.00 | 0.00 | 0.00 | 90 | 1018.5 |
| 20260906082522 | 21 | 32 | 3.2 | 3.2 | 0.00 | 0.00 | 0.00 | 90 | 1018.5 |
| 20260906082018 | 21 | 68 | 3.2 | 4.8 | 0.00 | 0.00 | 0.00 | 90 | 1018.6 |
| 20260906081514 | 21 | 20 | 6.4 | 6.4 | 0.00 | 0.00 | 0.00 | 90 | 1018.6 |
| 20260906081009 | 21 | 43 | 3.2 | 4.8 | 0.00 | 0.00 | 0.00 | 90 | 1018.5 |
| 20260906080506 | 21 | 54 | 3.2 | 4.8 | 0.00 | 0.00 | 0.00 | 90 | 1018.5 |
| 20260906080002 | 21 | 5 | 0.0 | 0.0 | 0.00 | 0.00 | 0.00 | 90 | 1018.6 |
| 20260906075456 | 21 | 2 | 1.6 | 1.6 | 0.00 | 0.00 | 0.00 | 90 | 1018.7 |
| 20260906074951 | 21 | 46 | 1.6 | 3.2 | 0.00 | 0.00 | 0.00 | 90 | 1018.5 |
| 20260906074450 | 21 | 10 | 1.6 | 3.2 | 0.00 | 0.00 | 0.00 | 90 | 1018.6 |
| 20260906073949 | 21 | 51 | 3.2 | 3.2 | 0.00 | 0.00 | 0.00 | 90 | 1018.5 |
| 20260906073444 | 21 | 59 | 3.2 | 4.8 | 0.00 | 0.00 | 0.00 | 90 | 1018.6 |
| 20260906072940 | 21 | 3 | 1.6 | 1.6 | 0.00 | 0.00 | 0.00 | 90 | 1018.2 |
| 20260906072435 | 21 | 48 | 6.4 | 6.4 | 0.00 | 0.00 | 0.00 | 89 | 1018.4 |
| 20260906071931 | 21 | 9 | 1.6 | 3.2 | 0.00 | 0.00 | 0.00 | 89 | 1018.5 |
| 20260906071427 | 21 | 28 | 1.6 | 3.2 | 0.00 | 0.00 | 0.00 | 88 | 1018.4 |
| 20260906070923 | 21 | 48 | 1.6 | 3.2 | 0.00 | 0.00 | 0.00 | 88 | 1018.5 |
| 20260906070418 | 21 | 67 | 3.2 | 3.2 | 0.00 | 0.00 | 0.00 | 88 | 1018.5 |
| 20260906065914 | 21 | 69 | 3.2 | 3.2 | 0.00 | 0.00 | 0.00 | 89 | 1018.6 |
| 20260906065408 | 21 | 42 | 1.6 | 3.2 | 0.00 | 0.00 | 0.00 | 88 | 1018.7 |
| 20260906064904 | 22 | 57 | 6.4 | 6.4 | 0.00 | 0.00 | 0.00 | 88 | 1018.9 |
| 20260906064400 | 22 | 0 | 3.2 | 3.2 | 0.00 | 0.00 | 0.00 | 88 | 1019.0 |
| 20260906063900 | 22 | 57 | 6.4 | 9.7 | 0.00 | 0.00 | 0.00 | 87 | 1018.9 |
| 20260906063355 | 22 | 76 | 6.4 | 6.4 | 0.00 | 0.00 | 0.00 | 87 | 1019.2 |
| 20260906062850 | 22 | 35 | 6.4 | 9.7 | 0.00 | 0.00 | 0.00 | 87 | 1018.7 |
| 20260906062349 | 22 | 98 | 3.2 | 6.4 | 0.00 | 0.00 | 0.00 | 87 | 1018.9 |
| 20260906061845 | 22 | 113 | 8.0 | 12.9 | 0.00 | 0.00 | 0.00 | 87 | 1018.9 |
| 20260906061342 | 22 | 60 | 4.8 | 11.3 | 0.00 | 0.00 | 0.00 | 88 | 1018.7 |
| 20260906060837 | 22 | 74 | 3.2 | 3.2 | 0.00 | 0.00 | 0.00 | 90 | 1018.7 |
| 20260906060334 | 22 | 132 | 3.2 | 6.4 | 0.00 | 0.00 | 0.00 | 90 | 1018.6 |
| 20260906055830 | 22 | 8 | 3.2 | 4.8 | 0.00 | 0.00 | 0.00 | 89 | 1018.9 |
| 20260906055326 | 22 | 71 | 3.2 | 4.8 | 0.00 | 0.00 | 0.00 | 89 | 1018.6 |
| 20260906054820 | 22 | 343 | 1.6 | 3.2 | 0.00 | 0.00 | 0.00 | 89 | 1018.6 |
| 20260906054315 | 22 | 56 | 3.2 | 4.8 | 0.00 | 0.00 | 0.00 | 89 | 1018.9 |
| 20260906053812 | 22 | 51 | 1.6 | 3.2 | 0.00 | 0.00 | 0.00 | 89 | 1018.5 |
| 20260906053308 | 22 | 31 | 1.6 | 1.6 | 0.00 | 0.00 | 0.00 | 88 | 1018.5 |
| 20260906052803 | 22 | 69 | 3.2 | 3.2 | 0.00 | 0.00 | 0.00 | 88 | 1018.7 |
| 20260906052259 | 22 | 18 | 1.6 | 1.6 | 0.00 | 0.00 | 0.00 | 88 | 1018.6 |
| 20260906051756 | 23 | 23 | 1.6 | 3.2 | 0.00 | 0.00 | 0.00 | 87 | 1018.6 |
| 20260906051255 | 23 | 23 | 3.2 | 4.8 | 0.00 | 0.00 | 0.00 | 87 | 1018.7 |
| 20260906050750 | 23 | 352 | 1.6 | 1.6 | 0.00 | 0.00 | 0.00 | 87 | 1018.6 |
| 20260906050246 | 23 | 65 | 1.6 | 4.8 | 0.00 | 0.00 | 0.00 | 87 | 1018.9 |
| 20260906045744 | 23 | 357 | 1.6 | 3.2 | 0.00 | 0.00 | 0.00 | 86 | 1019.0 |
| 20260906045239 | 23 | 2 | 3.2 | 4.8 | 0.00 | 0.00 | 0.00 | 86 | 1018.6 |
| 20260906044735 | 23 | 25 | 4.8 | 4.8 | 0.00 | 0.00 | 0.00 | 86 | 1018.6 |
| 20260906044230 | 23 | 13 | 3.2 | 4.8 | 0.00 | 0.00 | 0.00 | 86 | 1018.6 |
| 20260906043726 | 23 | 21 | 3.2 | 3.2 | 0.00 | 0.00 | 0.00 | 86 | 1018.4 |
| 20260906043221 | 23 | 353 | 1.6 | 3.2 | 0.00 | 0.00 | 0.00 | 86 | 1018.4 |
| 20260906042720 | 23 | 6 | 1.6 | 1.6 | 0.00 | 0.00 | 0.00 | 86 | 1018.3 |
| 20260906042220 | 23 | 7 | 4.8 | 4.8 | 0.00 | 0.00 | 0.00 | 85 | 1018.3 |
| 20260906041715 | 23 | 4 | 1.6 | 1.6 | 0.00 | 0.00 | 0.00 | 85 | 1018.2 |
| 20260906041210 | 23 | 3 | 0.0 | 0.0 | 0.00 | 0.00 | 0.00 | 85 | 1018.1 |
| 20260906040706 | 23 | 355 | 1.6 | 1.6 | 0.00 | 0.00 | 0.00 | 85 | 1018.1 |
| 20260906040201 | 23 | 0 | 1.6 | 1.6 | 0.00 | 0.00 | 0.00 | 86 | 1017.8 |
| 20260906035656 | 23 | 348 | 1.6 | 1.6 | 0.00 | 0.00 | 0.00 | 86 | 1017.8 |
| 20260906035152 | 23 | 357 | 0.0 | 1.6 | 0.00 | 0.00 | 0.00 | 87 | 1017.7 |
| 20260906034647 | 23 | 342 | 0.0 | 0.0 | 0.00 | 0.00 | 0.00 | 87 | 1017.6 |
| 20260906034141 | 23 | 3 | 1.6 | 3.2 | 0.00 | 0.00 | 0.00 | 86 | 1017.6 |
| 20260906033637 | 23 | 24 | 1.6 | 3.2 | 0.00 | 0.00 | 0.00 | 86 | 1017.8 |
| 20260906033132 | 23 | 352 | 0.0 | 1.6 | 0.00 | 0.00 | 0.00 | 86 | 1017.7 |
| 20260906032629 | 23 | 352 | 3.2 | 3.2 | 0.00 | 0.00 | 0.00 | 86 | 1017.8 |
| 20260906032128 | 23 | 348 | 3.2 | 3.2 | 0.00 | 0.00 | 0.00 | 86 | 1017.7 |
| 20260906031624 | 23 | 12 | 3.2 | 3.2 | 0.00 | 0.00 | 0.00 | 86 | 1017.7 |
| 20260906031119 | 23 | 357 | 1.6 | 3.2 | 0.00 | 0.00 | 0.00 | 85 | 1017.4 |
| 20260906030612 | 23 | 3 | 1.6 | 1.6 | 0.00 | 0.00 | 0.00 | 86 | 1017.3 |
| 20260906030108 | 23 | 21 | 3.2 | 3.2 | 0.00 | 0.00 | 0.00 | 85 | 1017.4 |
| 20260906025607 | 24 | 48 | 1.6 | 3.2 | 0.00 | 0.00 | 0.00 | 85 | 1017.3 |
| 20260906025106 | 23 | 7 | 3.2 | 3.2 | 0.00 | 0.00 | 0.00 | 85 | 1017.3 |
| 20260906024601 | 23 | 359 | 1.6 | 3.2 | 0.00 | 0.00 | 0.00 | 85 | 1017.2 |
| 20260906024055 | 23 | 357 | 1.6 | 3.2 | 0.00 | 0.00 | 0.00 | 86 | 1017.1 |
| 20260906023551 | 23 | 352 | 1.6 | 1.6 | 0.00 | 0.00 | 0.00 | 86 | 1016.9 |
| 20260906023046 | 23 | 353 | 0.0 | 1.6 | 0.00 | 0.00 | 0.00 | 86 | 1017.0 |
| 20260906022542 | 23 | 345 | 1.6 | 1.6 | 0.00 | 0.00 | 0.00 | 86 | 1017.0 |
| 20260906022037 | 23 | 13 | 4.8 | 4.8 | 0.00 | 0.00 | 0.00 | 87 | 1016.9 |
| 20260906021532 | 23 | 6 | 1.6 | 3.2 | 0.00 | 0.00 | 0.00 | 86 | 1016.8 |
| 20260906021031 | 24 | 23 | 3.2 | 3.2 | 0.00 | 0.00 | 0.00 | 86 | 1016.7 |
| 20260906020530 | 24 | 43 | 4.8 | 4.8 | 0.00 | 0.00 | 0.00 | 85 | 1016.5 |
| 20260906020025 | 24 | 30 | 1.6 | 3.2 | 0.00 | 0.00 | 0.00 | 85 | 1016.6 |
| 20260906015524 | 24 | 346 | 0.0 | 0.0 | 0.00 | 0.00 | 0.00 | 85 | 1016.5 |
| 20260906015023 | 24 | 26 | 3.2 | 3.2 | 0.00 | 0.00 | 0.00 | 85 | 1016.4 |
| 20260906014518 | 24 | 1 | 1.6 | 1.6 | 0.00 | 0.00 | 0.00 | 85 | 1016.2 |
| 20260906014014 | 24 | 342 | 1.6 | 3.2 | 0.00 | 0.00 | 0.00 | 84 | 1016.4 |
| 20260906013509 | 25 | 14 | 1.6 | 3.2 | 0.00 | 0.00 | 0.00 | 84 | 1016.2 |
| 20260906013005 | 24 | 2 | 1.6 | 3.2 | 0.00 | 0.00 | 0.00 | 84 | 1016.4 |
| 20260906012500 | 25 | 350 | 0.0 | 0.0 | 0.00 | 0.00 | 0.00 | 83 | 1016.3 |
| 20260906011959 | 25 | 352 | 0.0 | 0.0 | 0.00 | 0.00 | 0.00 | 83 | 1016.3 |
| 20260906011455 | 25 | 24 | 3.2 | 3.2 | 0.00 | 0.00 | 0.00 | 82 | 1016.3 |
| 20260906010950 | 25 | 12 | 3.2 | 3.2 | 0.00 | 0.00 | 0.00 | 82 | 1016.3 |
| 20260906010445 | 25 | 11 | 1.6 | 3.2 | 0.00 | 0.00 | 0.00 | 82 | 1016.3 |
| 20260906005942 | 25 | 50 | 3.2 | 3.2 | 0.00 | 0.00 | 0.00 | 81 | 1016.3 |
| 20260906005441 | 25 | 1 | 1.6 | 1.6 | 0.00 | 0.00 | 0.00 | 81 | 1016.1 |
| 20260906004939 | 25 | 49 | 3.2 | 4.8 | 0.00 | 0.00 | 0.00 | 81 | 1016.3 |
| 20260906004434 | 25 | 37 | 3.2 | 3.2 | 0.00 | 0.00 | 0.00 | 81 | 1016.3 |
| 20260906003930 | 25 | 42 | 3.2 | 4.8 | 0.00 | 0.00 | 0.00 | 80 | 1016.2 |
| 20260906003430 | 25 | 19 | 0.0 | 1.6 | 0.00 | 0.00 | 0.00 | 80 | 1016.3 |
| 20260906002925 | 25 | 53 | 3.2 | 4.8 | 0.00 | 0.00 | 0.00 | 80 | 1016.4 |
| 20260906002425 | 25 | 44 | 3.2 | 4.8 | 0.00 | 0.00 | 0.00 | 80 | 1016.3 |
| 20260906001920 | 25 | 36 | 6.4 | 6.4 | 0.00 | 0.00 | 0.00 | 80 | 1016.5 |
| 20260906001416 | 25 | 52 | 3.2 | 4.8 | 0.00 | 0.00 | 0.00 | 79 | 1016.5 |
| 20260906000911 | 25 | 40 | 6.4 | 6.4 | 0.00 | 0.00 | 0.00 | 79 | 1016.4 |
| 20260906000406 | 26 | 14 | 3.2 | 4.8 | 0.00 | 0.00 | 0.00 | 79 | 1016.5 |
| 20260905235900 | 26 | 49 | 6.4 | 11.3 | 0.00 | 0.00 | 0.00 | 79 | 1016.5 |
| 20260905235355 | 26 | 35 | 9.7 | 14.5 | 0.00 | 0.00 | 0.00 | 78 | 1016.7 |
| 20260905234850 | 26 | 71 | 4.8 | 6.4 | 0.00 | 0.00 | 0.00 | 78 | 1016.5 |
| 20260905234345 | 26 | 20 | 3.2 | 4.8 | 0.00 | 0.00 | 0.00 | 78 | 1016.4 |
| 20260905233840 | 26 | 70 | 6.4 | 6.4 | 0.00 | 0.00 | 0.00 | 78 | 1016.3 |
| 20260905233335 | 26 | 39 | 9.7 | 11.3 | 0.00 | 0.00 | 0.00 | 78 | 1016.4 |
| 20260905232834 | 26 | 49 | 3.2 | 3.2 | 0.00 | 0.00 | 0.00 | 77 | 1016.1 |
| 20260905232331 | 26 | 124 | 14.5 | 14.5 | 0.00 | 0.00 | 0.00 | 77 | 1016.3 |
| 20260905231826 | 27 | 80 | 4.8 | 9.7 | 0.00 | 0.00 | 0.00 | 76 | 1016.3 |
| 20260905231321 | 27 | 95 | 8.0 | 11.3 | 0.00 | 0.00 | 0.00 | 76 | 1016.2 |
| 20260905230818 | 27 | 26 | 9.7 | 11.3 | 0.00 | 0.00 | 0.00 | 76 | 1016.4 |
| 20260905230315 | 27 | 60 | 9.7 | 12.9 | 0.00 | 0.00 | 0.00 | 75 | 1016.1 |
| 20260905225815 | 27 | 52 | 4.8 | 4.8 | 0.00 | 0.00 | 0.00 | 74 | 1016.2 |
| 20260905225310 | 27 | 49 | 8.0 | 11.3 | 0.00 | 0.00 | 0.00 | 75 | 1015.9 |
| 20260905224810 | 27 | 42 | 9.7 | 14.5 | 0.00 | 0.00 | 0.00 | 76 | 1015.9 |
| 20260905224305 | 27 | 57 | 6.4 | 9.7 | 0.00 | 0.00 | 0.00 | 76 | 1016.0 |
| 20260905223800 | 27 | 72 | 4.8 | 4.8 | 0.00 | 0.00 | 0.00 | 76 | 1016.1 |
| 20260905223258 | 27 | 71 | 4.8 | 6.4 | 0.00 | 0.00 | 0.00 | 77 | 1016.0 |
| 20260905222753 | 27 | 54 | 4.8 | 6.4 | 0.00 | 0.00 | 0.00 | 75 | 1016.2 |
| 20260905222252 | 28 | 35 | 12.9 | 16.1 | 0.00 | 0.00 | 0.00 | 74 | 1016.1 |
| 20260905221748 | 28 | 78 | 11.3 | 14.5 | 0.00 | 0.00 | 0.00 | 74 | 1016.2 |
| 20260905221244 | 28 | 71 | 3.2 | 4.8 | 0.00 | 0.00 | 0.00 | 73 | 1016.2 |
| 20260905220740 | 28 | 46 | 8.0 | 11.3 | 0.00 | 0.00 | 0.00 | 73 | 1016.2 |
| 20260905220236 | 28 | 48 | 4.8 | 6.4 | 0.00 | 0.00 | 0.00 | 73 | 1016.2 |
| 20260905215735 | 27 | 43 | 8.0 | 11.3 | 0.00 | 0.00 | 0.00 | 74 | 1016.2 |
| 20260905215231 | 28 | 53 | 12.9 | 12.9 | 0.00 | 0.00 | 0.00 | 73 | 1016.0 |
| 20260905214721 | 28 | 30 | 8.0 | 9.7 | 0.00 | 0.00 | 0.00 | 73 | 1016.2 |
| 20260905214216 | 28 | 51 | 6.4 | 11.3 | 0.00 | 0.00 | 0.00 | 74 | 1015.9 |
| 20260905213712 | 28 | 20 | 6.4 | 6.4 | 0.00 | 0.00 | 0.00 | 73 | 1016.0 |
| 20260905213208 | 28 | 57 | 14.5 | 16.1 | 0.00 | 0.00 | 0.00 | 72 | 1015.9 |
| 20260905212702 | 28 | 19 | 8.0 | 11.3 | 0.00 | 0.00 | 0.00 | 71 | 1016.0 |
| 20260905212156 | 28 | 65 | 6.4 | 6.4 | 0.00 | 0.00 | 0.00 | 73 | 1016.1 |
| 20260905211650 | 28 | 61 | 12.9 | 14.5 | 0.00 | 0.00 | 0.00 | 72 | 1015.9 |
| 20260905211145 | 28 | 353 | 6.4 | 9.7 | 0.00 | 0.00 | 0.00 | 73 | 1016.2 |
| 20260905210643 | 28 | 357 | 1.6 | 1.6 | 0.00 | 0.00 | 0.00 | 74 | 1016.1 |
| 20260905210136 | 27 | 51 | 8.0 | 11.3 | 0.00 | 0.00 | 0.00 | 77 | 1016.0 |
| 20260905205635 | 27 | 357 | 6.4 | 9.7 | 0.00 | 0.00 | 0.00 | 76 | 1016.1 |
| 20260905205130 | 27 | 7 | 9.7 | 12.9 | 0.00 | 0.00 | 0.00 | 76 | 1016.0 |
| 20260905204629 | 27 | 62 | 9.7 | 12.9 | 0.00 | 0.00 | 0.00 | 77 | 1015.8 |
| 20260905204125 | 28 | 53 | 3.2 | 3.2 | 0.00 | 0.00 | 0.00 | 74 | 1016.0 |
| 20260905203625 | 27 | 17 | 6.4 | 9.7 | 0.00 | 0.00 | 0.00 | 76 | 1016.1 |
| 20260905203120 | 27 | 43 | 9.7 | 16.1 | 0.00 | 0.00 | 0.00 | 78 | 1016.2 |
| 20260905202615 | 27 | 48 | 9.7 | 11.3 | 0.00 | 0.00 | 0.00 | 79 | 1016.5 |
| 20260905202110 | 27 | 65 | 6.4 | 11.3 | 0.00 | 0.00 | 0.00 | 79 | 1016.3 |
| 20260905201606 | 27 | 66 | 11.3 | 12.9 | 0.00 | 0.00 | 0.00 | 79 | 1016.7 |
| 20260905201106 | 27 | 38 | 8.0 | 11.3 | 0.00 | 0.00 | 0.00 | 80 | 1016.6 |
| 20260905200601 | 27 | 274 | 4.8 | 6.4 | 0.00 | 0.00 | 0.00 | 78 | 1016.4 |
| 20260905200056 | 27 | 40 | 6.4 | 12.9 | 0.00 | 0.00 | 0.00 | 79 | 1016.5 |
| 20260905195549 | 27 | 355 | 3.2 | 3.2 | 0.00 | 0.00 | 0.00 | 79 | 1016.5 |
| 20260905195045 | 27 | 57 | 11.3 | 16.1 | 0.00 | 0.00 | 0.00 | 79 | 1016.5 |
| 20260905194545 | 28 | 23 | 4.8 | 9.7 | 0.00 | 0.00 | 0.00 | 79 | 1016.4 |
| 20260905194044 | 28 | 66 | 6.4 | 12.9 | 0.00 | 0.00 | 0.00 | 78 | 1016.5 |
| 20260905193539 | 27 | 51 | 4.8 | 6.4 | 0.00 | 0.00 | 0.00 | 79 | 1016.4 |
| 20260905193034 | 28 | 53 | 8.0 | 11.3 | 0.00 | 0.00 | 0.00 | 79 | 1016.3 |
| 20260905192529 | 28 | 14 | 4.8 | 9.7 | 0.00 | 0.00 | 0.00 | 77 | 1016.3 |
| 20260905192026 | 28 | 58 | 6.4 | 9.7 | 0.00 | 0.00 | 0.00 | 76 | 1016.3 |
| 20260905191524 | 29 | 347 | 4.8 | 9.7 | 0.00 | 0.00 | 0.00 | 76 | 1016.4 |
| 20260905191023 | 28 | 72 | 9.7 | 14.5 | 0.00 | 0.00 | 0.00 | 78 | 1016.5 |
| 20260905190521 | 28 | 74 | 12.9 | 20.9 | 0.00 | 0.00 | 0.00 | 79 | 1016.4 |
| 20260905190016 | 28 | 19 | 8.0 | 12.9 | 0.00 | 0.00 | 0.00 | 79 | 1016.4 |
| 20260905185510 | 29 | 49 | 8.0 | 11.3 | 0.00 | 0.00 | 0.00 | 76 | 1016.6 |
| 20260905185009 | 29 | 40 | 6.4 | 6.4 | 0.00 | 0.00 | 0.00 | 75 | 1016.3 |
| 20260905184504 | 29 | 57 | 9.7 | 14.5 | 0.00 | 0.00 | 0.00 | 76 | 1016.4 |
| 20260905184002 | 30 | 43 | 6.4 | 9.7 | 0.00 | 0.00 | 0.00 | 76 | 1016.4 |
| 20260905183457 | 29 | 43 | 9.7 | 12.9 | 0.00 | 0.00 | 0.00 | 75 | 1016.3 |
| 20260905182952 | 30 | 66 | 8.0 | 9.7 | 0.00 | 0.00 | 0.00 | 75 | 1016.3 |
| 20260905182451 | 30 | 18 | 4.8 | 4.8 | 0.00 | 0.00 | 0.00 | 75 | 1016.2 |
| 20260905181946 | 30 | 345 | 9.7 | 14.5 | 0.00 | 0.00 | 0.00 | 74 | 1016.3 |
| 20260905181441 | 30 | 23 | 9.7 | 12.9 | 0.00 | 0.00 | 0.00 | 75 | 1016.2 |
| 20260905180940 | 30 | 78 | 4.8 | 6.4 | 0.00 | 0.00 | 0.00 | 74 | 1016.2 |
| 20260905180435 | 30 | 73 | 9.7 | 12.9 | 0.00 | 0.00 | 0.00 | 73 | 1016.2 |
| 20260905175930 | 30 | 23 | 9.7 | 12.9 | 0.00 | 0.00 | 0.00 | 74 | 1016.1 |
| 20260905175430 | 30 | 348 | 4.8 | 6.4 | 0.00 | 0.00 | 0.00 | 72 | 1016.0 |
| 20260905174925 | 30 | 69 | 6.4 | 11.3 | 0.00 | 0.00 | 0.00 | 71 | 1016.1 |
| 20260905174421 | 30 | 28 | 6.4 | 9.7 | 0.00 | 0.00 | 0.00 | 71 | 1016.3 |
| 20260905173916 | 30 | 30 | 9.7 | 14.5 | 0.00 | 0.00 | 0.00 | 72 | 1016.3 |
| 20260905173413 | 30 | 93 | 9.7 | 12.9 | 0.00 | 0.00 | 0.00 | 71 | 1016.3 |
| 20260905172912 | 30 | 43 | 9.7 | 11.3 | 0.00 | 0.00 | 0.00 | 71 | 1016.2 |
| 20260905172410 | 30 | 72 | 6.4 | 6.4 | 0.00 | 0.00 | 0.00 | 71 | 1016.2 |
| 20260905171906 | 31 | 3 | 4.8 | 6.4 | 0.00 | 0.00 | 0.00 | 68 | 1016.4 |
| 20260905171403 | 31 | 6 | 3.2 | 3.2 | 0.00 | 0.00 | 0.00 | 68 | 1016.6 |
| 20260905170859 | 30 | 348 | 8.0 | 11.3 | 0.00 | 0.00 | 0.00 | 69 | 1016.6 |
| 20260905170355 | 30 | 29 | 6.4 | 9.7 | 0.00 | 0.00 | 0.00 | 71 | 1016.7 |
| 20260905165855 | 30 | 48 | 6.4 | 9.7 | 0.00 | 0.00 | 0.00 | 71 | 1016.8 |
| 20260905165350 | 30 | 57 | 3.2 | 3.2 | 0.00 | 0.00 | 0.00 | 69 | 1016.8 |
| 20260905164850 | 30 | 19 | 9.7 | 14.5 | 0.00 | 0.00 | 0.00 | 69 | 1016.8 |
| 20260905164344 | 30 | 56 | 11.3 | 12.9 | 0.00 | 0.00 | 0.00 | 72 | 1016.4 |
| 20260905163841 | 30 | 78 | 6.4 | 9.7 | 0.00 | 0.00 | 0.00 | 71 | 1016.8 |
| 20260905163337 | 30 | 63 | 3.2 | 4.8 | 0.00 | 0.00 | 0.00 | 71 | 1016.6 |
| 20260905162833 | 30 | 29 | 6.4 | 6.4 | 0.00 | 0.00 | 0.00 | 73 | 1016.7 |
| 20260905162332 | 29 | 345 | 6.4 | 9.7 | 0.00 | 0.00 | 0.00 | 72 | 1016.8 |
| 20260905161827 | 30 | 23 | 6.4 | 9.7 | 0.00 | 0.00 | 0.00 | 73 | 1016.7 |
| 20260905161327 | 30 | 44 | 4.8 | 9.7 | 0.00 | 0.00 | 0.00 | 71 | 1016.5 |
| 20260905160825 | 30 | 38 | 6.4 | 9.7 | 0.00 | 0.00 | 0.00 | 73 | 1016.7 |
| 20260905160319 | 30 | 8 | 9.7 | 14.5 | 0.00 | 0.00 | 0.00 | 72 | 1016.7 |
| 20260905155814 | 29 | 29 | 6.4 | 11.3 | 0.00 | 0.00 | 0.00 | 73 | 1016.6 |